Flag for Canada Weather past 2 weeks in Timmins, Ontario, Canada

Now
64 °F

Low clouds.


Feels Like: 64 °F
Forecast: 56 / 74 °F
Wind: 7 mph from East

Location: Timmins

Current Time: Aug 21, 2014 at 12:09:18 PM

Latest Report: Aug 21, 2014 at 11:00 AM


Visibility: 15 mi

Pressure: 30.02 "Hg

Humidity: 94%

Dew point: 63 °F

Location of TimminsLocation

Historic Weather in Timmins — Graph

°F

Timmins temperature yesterday

Maximum temperature yesterday: 63 °F (at 2:00 PM)
Minimum temperature yesterday: 55 °F (at 1:00 AM)
Average temperature yesterday: 58 °F

Past Weeks' High & Low Weather Summary

 TemperatureHumidityPressure
High84 °F (Aug 9, 4:00 PM)100% (Aug 7, 3:00 AM)30.19 "Hg (Aug 7, 3:00 AM)
Low37 °F (Aug 18, 4:00 AM)33% (Aug 10, 1:00 PM)29.61 "Hg (Aug 12, 7:00 PM)
Average58 °F84%29.96 "Hg
* Reported Aug 6 11:00 AM — Aug 21 11:00 AM, Timmins, Weather by CustomWeather, © 2014

Note: Actual official high and low records may vary slightly from our data, if they occured in-between our weather recording intervals... More about our weather records

Advertising

Timmins weather history for previous 24 hours

 ConditionsComfort  
Time TempWeatherWind HumidityBarometerVisibility
11:00 AM
Aug 21
64 °FLow clouds.7 mph94%30.02 "Hg15 mi
10:00 AM63 °FLow clouds.6 mph94%30.03 "Hg15 mi
9:00 AM61 °FMostly cloudy.3 mph100%30.02 "Hg15 mi
8:00 AM61 °FLight rain. Mostly cloudy.7 mph94%30.02 "Hg15 mi
7:00 AM59 °FLow clouds.7 mph100%30.02 "Hg15 mi
6:00 AM59 °FLow clouds.No wind94%30.01 "Hg15 mi
5:00 AM57 °FLow clouds.2 mph100%30.00 "Hg15 mi
4:00 AM59 °FOvercast.2 mph94%30.00 "Hg15 mi
3:00 AM57 °FOvercast.3 mph100%30.00 "Hg15 mi
2:00 AM57 °FOvercast.2 mph100%30.01 "Hg15 mi
1:00 AM57 °FOvercast.2 mph94%30.01 "Hg15 mi
12:00 AM57 °FOvercast.2 mph94%30.00 "Hg15 mi
11:00 PM
Aug 20
57 °FOvercast.5 mph94%30.00 "Hg15 mi
10:00 PM57 °FOvercast.5 mph94%30.00 "Hg15 mi
9:00 PM59 °FMore clouds than sun.6 mph88%30.00 "Hg15 mi
8:00 PM59 °FPartly sunny.8 mph88%30.00 "Hg15 mi
7:00 PM61 °FLight rain. Partly sunny.6 mph88%29.99 "Hg15 mi
6:00 PM59 °FLight rain. Mostly cloudy.9 mph94%29.99 "Hg12 mi
5:00 PM61 °FLight rain. Cloudy.9 mph94%29.98 "Hg12 mi
4:00 PM61 °FLight rain. Mostly cloudy.7 mph94%29.97 "Hg12 mi
3:00 PM61 °FLight rain. Cloudy.10 mph94%29.96 "Hg12 mi
2:00 PM63 °FCloudy.12 mph88%29.95 "Hg12 mi
1:00 PM61 °FLight rain. Broken clouds.12 mph94%29.94 "Hg12 mi
12:00 PM59 °FLight rain. More clouds than sun.10 mph94%29.94 "Hg10 mi
Weather by CustomWeather, © 2014

See weather overviewHow to use our weather pages